Time,TemperatureF,DewpointF,PressureIn,WindDirection,WindDirectionDegrees,WindSpeedMPH,WindSpeedGustMPH,Humidity,HourlyPrecipIn,Conditions,Clouds,dailyrainin,SolarRadiationWatts/m^2,SoftwareType,DateUTC
2013-05-19 00:00:00,73.2,59.0,29.63,WNW,285,1.0,1.0,61,0.00,,,0.00,0.00,VWS V14.01,2013-05-19 04:00:00,
2013-05-19 00:01:00,73.2,59.0,29.63,WNW,285,1.0,1.0,61,0.00,,OVC046,0.00,0.00,VWS V14.01,2013-05-19 04:01:00,
2013-05-19 00:02:00,73.0,58.8,29.63,WNW,285,0.0,0.0,61,0.00,,OVC046,0.00,0.00,VWS V14.01,2013-05-19 04:02:00,
2013-05-19 00:03:00,72.7,58.9,29.63,SSE,162,0.0,1.0,62,0.00,,,0.00,0.00,VWS V14.01,2013-05-19 04:03:00,
2013-05-19 00:04:00,72.5,59.2,29.63,SSE,162,0.0,2.0,63,0.00,,,0.00,0.00,VWS V14.01,2013-05-19 04:04:00,
2013-05-19 00:05:00,72.3,59.5,29.63,SSE,161,0.0,0.0,64,0.00,,,0.00,0.00,VWS V14.01,2013-05-19 04:05:00,
2013-05-19 00:06:00,72.1,59.7,29.63,South,186,1.0,1.0,65,0.00,,,0.00,0.00,VWS V14.01,2013-05-19 04:06:00,
2013-05-19 00:07:00,72.1,59.7,29.63,South,186,1.0,1.0,65,0.00,,OVC046,0.00,0.00,VWS V14.01,2013-05-19 04:07:00,
2013-05-19 00:08:00,71.8,60.3,29.63,WNW,296,0.0,2.0,67,0.01,,,0.01,0.00,VWS V14.01,2013-05-19 04:08:00,
2013-05-19 00:09:00,71.8,60.3,29.63,WNW,296,0.0,0.0,67,0.01,,,0.01,0.00,VWS V14.01,2013-05-19 04:09:00,
2013-05-19 00:10:00,71.6,60.5,29.63,West,265,0.0,0.0,68,0.01,,,0.01,0.00,VWS V14.01,2013-05-19 04:10:00,
2013-05-19 00:11:00,71.5,60.4,29.63,West,265,0.0,0.0,68,0.01,,,0.01,0.00,VWS V14.01,2013-05-19 04:11:00,
2013-05-19 00:12:00,71.5,60.4,29.63,West,265,0.0,0.0,68,0.01,,,0.01,0.00,VWS V14.01,2013-05-19 04:12:00,
2013-05-19 00:13:00,71.1,60.4,29.63,West,265,0.0,0.0,69,0.01,,,0.01,0.00,VWS V14.01,2013-05-19 04:13:00,
2013-05-19 00:14:00,70.9,60.6,29.60,West,265,0.0,0.0,70,0.01,,,0.01,0.00,VWS V14.01,2013-05-19 04:14:00,
2013-05-19 00:15:00,70.9,60.6,29.60,West,265,0.0,0.0,70,0.01,,,0.01,0.00,VWS V14.01,2013-05-19 04:15:00,
2013-05-19 00:16:00,70.6,60.8,29.60,West,265,0.0,0.0,71,0.01,,,0.01,0.00,VWS V14.01,2013-05-19 04:16:00,
2013-05-19 00:17:00,70.6,60.8,29.60,West,265,0.0,0.0,71,0.01,,,0.01,0.00,VWS V14.01,2013-05-19 04:17:00,
2013-05-19 00:18:00,70.4,61.0,29.60,West,265,0.0,0.0,72,0.01,,,0.01,0.00,VWS V14.01,2013-05-19 04:18:00,
2013-05-19 00:19:00,70.3,60.9,29.60,West,265,0.0,0.0,72,0.02,,,0.02,0.00,VWS V14.01,2013-05-19 04:19:00,
2013-05-19 00:20:00,70.1,61.0,29.60,West,265,0.0,0.0,73,0.02,,,0.02,0.00,VWS V14.01,2013-05-19 04:20:00,
2013-05-19 00:21:00,69.9,61.2,29.60,West,267,0.0,0.0,74,0.02,,,0.02,0.00,VWS V14.01,2013-05-19 04:21:00,
2013-05-19 00:22:00,69.9,61.2,29.60,West,267,0.0,0.0,74,0.02,,,0.02,0.00,VWS V14.01,2013-05-19 04:22:00,
2013-05-19 00:23:00,69.4,61.1,29.60,West,267,0.0,0.0,75,0.03,,,0.03,0.00,VWS V14.01,2013-05-19 04:23:00,
2013-05-19 00:24:00,69.4,61.1,29.60,West,267,0.0,0.0,75,0.03,,,0.03,0.00,VWS V14.01,2013-05-19 04:24:00,
2013-05-19 00:25:00,69.1,61.2,29.60,West,267,0.0,0.0,76,0.03,,,0.03,0.00,VWS V14.01,2013-05-19 04:25:00,
2013-05-19 00:26:00,69.1,61.2,29.60,West,267,0.0,1.0,76,0.03,,,0.03,0.00,VWS V14.01,2013-05-19 04:26:00,
2013-05-19 00:27:00,68.9,61.0,29.60,West,267,0.0,0.0,76,0.03,,,0.03,0.00,VWS V14.01,2013-05-19 04:27:00,
2013-05-19 00:28:00,68.8,61.3,29.60,SW,223,0.0,0.0,77,0.04,,,0.04,0.00,VWS V14.01,2013-05-19 04:28:00,
2013-05-19 00:29:00,68.4,61.3,29.59,SE,143,0.0,2.0,78,0.04,,,0.04,0.00,VWS V14.01,2013-05-19 04:29:00,
2013-05-19 00:30:00,68.4,61.3,29.59,SE,143,0.0,3.0,78,0.04,,,0.04,0.00,VWS V14.01,2013-05-19 04:30:00,
2013-05-19 00:31:00,68.3,61.2,29.59,SSE,154,2.0,3.0,78,0.05,,,0.05,0.00,VWS V14.01,2013-05-19 04:31:00,
2013-05-19 00:32:00,68.1,61.0,29.59,SSE,154,1.0,2.0,78,0.05,,,0.05,0.00,VWS V14.01,2013-05-19 04:32:00,
2013-05-19 00:33:00,67.9,61.2,29.59,SSE,151,0.0,0.0,79,0.07,,,0.07,0.00,VWS V14.01,2013-05-19 04:33:00,
2013-05-19 00:34:00,67.8,61.1,29.59,SSE,151,0.0,0.0,79,0.08,,,0.08,0.00,VWS V14.01,2013-05-19 04:34:00,
2013-05-19 00:37:00,67.4,61.0,29.59,SSE,151,0.0,0.0,80,0.15,,,0.15,0.00,VWS V14.01,2013-05-19 04:37:00,
2013-05-19 00:44:00,66.6,60.6,29.59,SE,135,5.0,14.0,81,0.37,,,0.37,0.00,VWS V14.01,2013-05-19 04:44:00,
2013-05-19 00:49:00,64.8,59.9,29.62,WNW,284,0.0,0.0,84,0.52,,,0.52,0.00,VWS V14.01,2013-05-19 04:49:00,
2013-05-19 00:54:00,64.3,60.0,29.62,WNW,284,2.0,3.0,86,0.58,,,0.58,0.00,VWS V14.01,2013-05-19 04:54:00,
2013-05-19 00:59:00,64.2,60.3,29.62,WNW,284,2.0,4.0,87,0.62,,,0.62,0.00,VWS V14.01,2013-05-19 04:59:00,
2013-05-19 01:04:00,63.9,60.3,29.60,WNW,284,0.0,0.0,88,0.64,,,0.01,0.00,VWS V14.01,2013-05-19 05:04:00,
2013-05-19 01:09:00,63.5,59.9,29.60,WNW,284,0.0,0.0,88,0.63,,,0.01,0.00,VWS V14.01,2013-05-19 05:09:00,
2013-05-19 01:14:00,63.5,60.2,29.60,WNW,285,0.0,0.0,89,0.63,,,0.01,0.00,VWS V14.01,2013-05-19 05:14:00,
2013-05-19 01:19:00,63.4,60.1,29.60,WNW,284,0.0,0.0,89,0.63,,,0.01,0.00,VWS V14.01,2013-05-19 05:19:00,
2013-05-19 01:24:00,63.2,60.2,29.60,West,267,2.0,3.0,90,0.62,,,0.02,0.00,VWS V14.01,2013-05-19 05:24:00,
2013-05-19 01:29:00,63.2,60.2,29.60,SE,128,0.0,5.0,90,0.67,,,0.08,0.00,VWS V14.01,2013-05-19 05:29:00,
2013-05-19 01:34:00,63.4,60.4,29.66,East,88,2.0,6.0,90,0.74,,,0.18,0.00,VWS V14.01,2013-05-19 05:34:00,
2013-05-19 01:39:00,63.2,60.2,29.66,ENE,61,0.0,0.0,90,0.56,,,0.19,0.00,VWS V14.01,2013-05-19 05:39:00,
2013-05-19 01:44:00,62.9,60.2,29.66,ENE,61,0.0,0.0,91,0.40,,,0.20,0.00,VWS V14.01,2013-05-19 05:44:00,
2013-05-19 01:49:00,62.9,60.2,29.60,ENE,61,0.0,0.0,91,0.33,,,0.21,0.00,VWS V14.01,2013-05-19 05:49:00,
2013-05-19 01:55:00,62.9,60.2,29.60,SSE,164,4.0,4.0,91,0.27,,,0.21,0.00,VWS V14.01,2013-05-19 05:55:00,
2013-05-19 01:59:00,63.1,60.4,29.60,ESE,106,5.0,6.0,91,0.24,,,0.23,0.00,VWS V14.01,2013-05-19 05:59:00,
2013-05-19 02:05:00,62.9,60.2,29.66,SSE,155,1.0,7.0,91,0.23,,,0.24,0.00,VWS V14.01,2013-05-19 06:05:00,
2013-05-19 02:09:00,62.9,60.5,29.66,SW,217,0.0,3.0,92,0.24,,,0.25,0.00,VWS V14.01,2013-05-19 06:09:00,
2013-05-19 02:14:00,62.9,60.5,29.66,SW,220,0.0,0.0,92,0.25,,,0.26,0.00,VWS V14.01,2013-05-19 06:14:00,
2013-05-19 02:20:00,62.7,60.3,29.65,SSE,150,0.0,0.0,92,0.26,,,0.27,0.00,VWS V14.01,2013-05-19 06:20:00,
2013-05-19 02:24:00,62.7,60.3,29.65,SSW,202,0.0,3.0,92,0.25,,-RA,0.27,0.00,VWS V14.01,2013-05-19 06:24:00,
2013-05-19 02:30:00,62.6,60.2,29.65,SE,140,0.0,4.0,92,0.22,,-RA,0.28,0.00,VWS V14.01,2013-05-19 06:30:00,
2013-05-19 02:35:00,62.3,60.0,29.62,ESE,120,0.0,0.0,92,0.11,,-RA,0.28,0.00,VWS V14.01,2013-05-19 06:35:00,
2013-05-19 02:40:00,62.3,60.0,29.62,SSE,147,0.0,0.0,92,0.10,,-RA,0.29,0.00,VWS V14.01,2013-05-19 06:40:00,
2013-05-19 02:45:00,62.1,59.8,29.62,SSE,147,0.0,0.0,92,0.09,,-RA,0.29,0.00,VWS V14.01,2013-05-19 06:45:00,
2013-05-19 02:49:00,62.0,59.7,29.59,SSE,147,0.0,0.0,92,0.08,,-RA,0.29,0.00,VWS V14.01,2013-05-19 06:49:00,
2013-05-19 02:55:00,62.0,59.7,29.59,SSE,147,0.0,0.0,92,0.08,,-RA,0.29,0.00,VWS V14.01,2013-05-19 06:55:00,
2013-05-19 02:59:00,62.0,59.7,29.59,East,89,0.0,0.0,92,0.06,,-RA,0.29,0.00,VWS V14.01,2013-05-19 06:59:00,
2013-05-19 03:05:00,61.8,59.5,29.54,East,89,0.0,0.0,92,0.05,,-RA,0.29,0.00,VWS V14.01,2013-05-19 07:05:00,
2013-05-19 03:09:00,61.8,59.8,29.54,East,90,0.0,0.0,93,0.04,,-RA,0.29,0.00,VWS V14.01,2013-05-19 07:09:00,
2013-05-19 03:14:00,62.0,60.0,29.54,ESE,112,0.0,0.0,93,0.03,,-RA,0.29,0.00,VWS V14.01,2013-05-19 07:14:00,
2013-05-19 03:20:00,62.0,60.0,29.58,ESE,112,0.0,0.0,93,0.03,,-RA,0.29,0.00,VWS V14.01,2013-05-19 07:20:00,
2013-05-19 03:24:00,61.8,59.8,29.58,ESE,112,0.0,0.0,93,0.02,,-RA,0.29,0.00,VWS V14.01,2013-05-19 07:24:00,
2013-05-19 03:30:00,62.0,60.0,29.58,ESE,112,0.0,0.0,93,0.01,,-RA,0.29,0.00,VWS V14.01,2013-05-19 07:30:00,
2013-05-19 03:35:00,62.0,60.0,29.59,ESE,112,0.0,0.0,93,0.01,,-RA,0.29,0.00,VWS V14.01,2013-05-19 07:35:00,
2013-05-19 03:39:00,61.8,59.8,29.59,ESE,112,0.0,0.0,93,0.01,,-RA,0.29,0.00,VWS V14.01,2013-05-19 07:39:00,
2013-05-19 03:44:00,61.8,59.8,29.59,ESE,112,0.0,0.0,93,0.00,,-RA,0.29,0.00,VWS V14.01,2013-05-19 07:44:00,
2013-05-19 03:49:00,61.8,59.8,29.58,ESE,112,0.0,0.0,93,0.00,,-RA,0.29,0.00,VWS V14.01,2013-05-19 07:49:00,
2013-05-19 03:55:00,61.6,59.6,29.58,ESE,112,0.0,0.0,93,0.00,,-RA,0.29,0.00,VWS V14.01,2013-05-19 07:55:00,
2013-05-19 04:00:00,61.6,59.6,29.58,ESE,112,0.0,0.0,93,0.00,,-RA,0.29,0.00,VWS V14.01,2013-05-19 08:00:00,
2013-05-19 04:04:00,61.6,59.6,29.57,ESE,112,0.0,0.0,93,0.00,,-RA,0.29,0.00,VWS V14.01,2013-05-19 08:04:00,
2013-05-19 04:10:00,61.5,59.5,29.57,NNE,24,0.0,3.0,93,0.00,,-RA,0.29,0.00,VWS V14.01,2013-05-19 08:10:00,
2013-05-19 04:15:00,61.6,59.6,29.57,NNE,24,0.0,0.0,93,0.00,,CLR,0.29,0.00,VWS V14.01,2013-05-19 08:15:00,
2013-05-19 04:20:00,61.6,59.6,29.51,NNE,24,0.0,0.0,93,0.00,,CLR,0.29,0.00,VWS V14.01,2013-05-19 08:20:00,
2013-05-19 04:25:00,61.3,59.3,29.51,NNE,24,0.0,0.0,93,0.00,,CLR,0.29,0.00,VWS V14.01,2013-05-19 08:25:00,
2013-05-19 04:29:00,61.5,59.5,29.51,NNE,24,0.0,0.0,93,0.00,,CLR,0.29,0.00,VWS V14.01,2013-05-19 08:29:00,
2013-05-19 04:34:00,61.3,59.3,29.49,NNE,24,0.0,0.0,93,0.00,,CLR,0.29,0.00,VWS V14.01,2013-05-19 08:34:00,
2013-05-19 04:39:00,61.2,59.2,29.49,NNE,24,0.0,0.0,93,0.00,,CLR,0.29,0.00,VWS V14.01,2013-05-19 08:39:00,
2013-05-19 04:45:00,61.2,59.5,29.49,NNE,24,0.0,0.0,94,0.00,,CLR,0.29,0.00,VWS V14.01,2013-05-19 08:45:00,
2013-05-19 04:50:00,61.2,59.5,29.51,NNE,24,0.0,0.0,94,0.00,,CLR,0.29,0.00,VWS V14.01,2013-05-19 08:50:00,
2013-05-19 04:54:00,61.2,59.5,29.51,NNE,28,0.0,0.0,94,0.00,,CLR,0.29,0.00,VWS V14.01,2013-05-19 08:54:00,
2013-05-19 04:59:00,61.2,59.5,29.51,NNE,31,0.0,0.0,94,0.00,,CLR,0.29,0.00,VWS V14.01,2013-05-19 08:59:00,
2013-05-19 05:05:00,61.2,59.5,29.52,NNE,31,0.0,0.0,94,0.00,,CLR,0.29,0.00,VWS V14.01,2013-05-19 09:05:00,
2013-05-19 05:10:00,61.0,59.3,29.52,NNE,31,0.0,0.0,94,0.00,,CLR,0.29,0.00,VWS V14.01,2013-05-19 09:10:00,
2013-05-19 05:15:00,61.2,59.5,29.52,NNE,31,0.0,0.0,94,0.00,,CLR,0.29,0.00,VWS V14.01,2013-05-19 09:15:00,
2013-05-19 05:19:00,61.0,59.3,29.54,East,95,8.0,8.0,94,0.00,,CLR,0.29,0.00,VWS V14.01,2013-05-19 09:19:00,
2013-05-19 05:25:00,60.9,59.2,29.54,ESE,107,0.0,0.0,94,0.00,,CLR,0.29,0.00,VWS V14.01,2013-05-19 09:25:00,
2013-05-19 05:30:00,60.9,59.2,29.54,ESE,107,0.0,0.0,94,0.00,,CLR,0.29,0.00,VWS V14.01,2013-05-19 09:30:00,
2013-05-19 05:34:00,60.9,59.2,29.55,ESE,107,0.0,0.0,94,0.00,,CLR,0.29,0.00,VWS V14.01,2013-05-19 09:34:00,
2013-05-19 05:40:00,60.9,59.2,29.55,ESE,107,0.0,0.0,94,0.00,,CLR,0.29,0.00,VWS V14.01,2013-05-19 09:40:00,
2013-05-19 05:45:00,60.7,59.0,29.55,ESE,107,0.0,0.0,94,0.00,,CLR,0.29,0.00,VWS V14.01,2013-05-19 09:45:00,
2013-05-19 05:49:00,61.0,59.3,29.56,ESE,107,0.0,0.0,94,0.00,,CLR,0.29,0.00,VWS V14.01,2013-05-19 09:49:00,
2013-05-19 05:54:00,60.9,59.2,29.56,ESE,107,0.0,0.0,94,0.00,,CLR,0.29,0.00,VWS V14.01,2013-05-19 09:54:00,
2013-05-19 06:00:00,60.9,59.2,29.56,ESE,107,0.0,0.0,94,0.00,,CLR,0.29,0.00,VWS V14.01,2013-05-19 10:00:00,
2013-05-19 06:05:00,61.0,59.3,29.56,SSE,168,0.0,0.0,94,0.00,,CLR,0.29,0.00,VWS V14.01,2013-05-19 10:05:00,
2013-05-19 06:10:00,61.0,59.3,29.56,ESE,102,0.0,0.0,94,0.00,,CLR,0.29,0.00,VWS V14.01,2013-05-19 10:10:00,
2013-05-19 06:14:00,60.9,59.2,29.56,ESE,102,0.0,0.0,94,0.00,,CLR,0.29,0.00,VWS V14.01,2013-05-19 10:14:00,
2013-05-19 06:20:00,60.9,59.2,29.54,ESE,102,0.0,0.0,94,0.00,,CLR,0.29,0.00,VWS V14.01,2013-05-19 10:20:00,
2013-05-19 06:25:00,60.7,59.0,29.54,ESE,102,0.0,0.0,94,0.00,,CLR,0.29,0.00,VWS V14.01,2013-05-19 10:25:00,
2013-05-19 06:29:00,60.7,59.0,29.54,ESE,102,0.0,0.0,94,0.00,,CLR,0.29,0.00,VWS V14.01,2013-05-19 10:29:00,
2013-05-19 06:34:00,60.5,58.8,29.55,ESE,102,0.0,0.0,94,0.00,,CLR,0.29,0.00,VWS V14.01,2013-05-19 10:34:00,
2013-05-19 06:39:00,60.5,58.8,29.55,ESE,102,0.0,0.0,94,0.00,,CLR,0.29,0.00,VWS V14.01,2013-05-19 10:39:00,
2013-05-19 06:44:00,60.4,58.7,29.55,ESE,102,0.0,0.0,94,0.00,,CLR,0.29,0.00,VWS V14.01,2013-05-19 10:44:00,
2013-05-19 06:49:00,60.4,58.7,29.52,ESE,102,0.0,0.0,94,0.00,,CLR,0.29,0.00,VWS V14.01,2013-05-19 10:49:00,
2013-05-19 06:54:00,60.2,58.5,29.52,ESE,102,0.0,0.0,94,0.00,,CLR,0.29,0.00,VWS V14.01,2013-05-19 10:54:00,
2013-05-19 06:59:00,60.2,58.5,29.52,ESE,102,0.0,0.0,94,0.00,,CLR,0.29,0.00,VWS V14.01,2013-05-19 10:59:00,
2013-05-19 07:04:00,60.2,58.5,29.51,ESE,102,0.0,0.0,94,0.00,,CLR,0.29,0.00,VWS V14.01,2013-05-19 11:04:00,
2013-05-19 07:10:00,60.2,58.5,29.51,East,88,0.0,0.0,94,0.00,,CLR,0.29,0.00,VWS V14.01,2013-05-19 11:10:00,
2013-05-19 07:14:00,60.2,58.5,29.51,East,90,0.0,0.0,94,0.00,,CLR,0.29,0.00,VWS V14.01,2013-05-19 11:14:00,
2013-05-19 07:20:00,60.1,58.7,29.49,East,99,0.0,0.0,95,0.00,,CLR,0.29,0.00,VWS V14.01,2013-05-19 11:20:00,
2013-05-19 07:25:00,60.2,58.8,29.49,East,99,0.0,0.0,95,0.00,,CLR,0.29,9.00,VWS V14.01,2013-05-19 11:25:00,
2013-05-19 07:29:00,60.1,58.7,29.49,East,99,0.0,0.0,95,0.00,,CLR,0.29,14.00,VWS V14.01,2013-05-19 11:29:00,
2013-05-19 07:34:00,60.4,59.0,29.49,East,99,0.0,0.0,95,0.00,,CLR,0.29,21.00,VWS V14.01,2013-05-19 11:34:00,
2013-05-19 07:39:00,60.2,58.8,29.49,East,99,0.0,0.0,95,0.00,,CLR,0.29,32.00,VWS V14.01,2013-05-19 11:39:00,
2013-05-19 07:44:00,60.4,59.0,29.49,East,99,0.0,0.0,95,0.00,,CLR,0.29,42.00,VWS V14.01,2013-05-19 11:44:00,
2013-05-19 07:49:00,60.5,59.1,29.49,East,99,0.0,0.0,95,0.00,,CLR,0.29,60.00,VWS V14.01,2013-05-19 11:49:00,
2013-05-19 07:54:00,60.5,59.1,29.49,East,99,0.0,0.0,95,0.00,,CLR,0.29,70.00,VWS V14.01,2013-05-19 11:54:00,
2013-05-19 07:59:00,60.7,59.3,29.49,East,99,0.0,0.0,95,0.00,,CLR,0.29,77.00,VWS V14.01,2013-05-19 11:59:00,
2013-05-19 08:04:00,60.9,59.5,29.50,East,99,0.0,0.0,95,0.00,,CLR,0.29,86.00,VWS V14.01,2013-05-19 12:04:00,
2013-05-19 08:09:00,61.0,59.6,29.50,East,100,0.0,0.0,95,0.00,,CLR,0.29,55.00,VWS V14.01,2013-05-19 12:09:00,
2013-05-19 08:14:00,61.2,59.8,29.50,East,99,0.0,0.0,95,0.00,,CLR,0.29,60.00,VWS V14.01,2013-05-19 12:14:00,
2013-05-19 08:19:00,61.3,59.9,29.52,East,99,0.0,0.0,95,0.00,,CLR,0.29,67.00,VWS V14.01,2013-05-19 12:19:00,
2013-05-19 08:24:00,61.3,59.9,29.52,East,99,0.0,0.0,95,0.00,,CLR,0.29,58.00,VWS V14.01,2013-05-19 12:24:00,
2013-05-19 08:29:00,61.5,60.1,29.52,East,99,0.0,0.0,95,0.00,,CLR,0.29,56.00,VWS V14.01,2013-05-19 12:29:00,
2013-05-19 08:34:00,61.6,60.2,29.53,East,99,0.0,0.0,95,0.00,,CLR,0.29,58.00,VWS V14.01,2013-05-19 12:34:00,
2013-05-19 08:39:00,61.6,60.2,29.53,East,100,0.0,0.0,95,0.00,,CLR,0.29,53.00,VWS V14.01,2013-05-19 12:39:00,
2013-05-19 08:44:00,61.6,60.2,29.53,South,184,0.0,2.0,95,0.00,,CLR,0.29,46.00,VWS V14.01,2013-05-19 12:44:00,
2013-05-19 08:49:00,61.6,60.2,29.54,South,185,0.0,0.0,95,0.00,,CLR,0.29,48.00,VWS V14.01,2013-05-19 12:49:00,
2013-05-19 08:54:00,61.6,60.2,29.54,WSW,247,0.0,0.0,95,0.00,,CLR,0.29,49.00,VWS V14.01,2013-05-19 12:54:00,
2013-05-19 08:59:00,61.8,60.4,29.54,SSW,205,0.0,0.0,95,0.00,,CLR,0.29,49.00,VWS V14.01,2013-05-19 12:59:00,
2013-05-19 09:04:00,62.1,60.7,29.52,South,169,0.0,0.0,95,0.00,,BKN065,0.29,53.00,VWS V14.01,2013-05-19 13:04:00,
2013-05-19 09:09:00,62.3,60.8,29.52,SSE,165,0.0,0.0,95,0.00,,BKN065,0.29,63.00,VWS V14.01,2013-05-19 13:09:00,
2013-05-19 09:14:00,62.4,61.0,29.52,South,174,0.0,0.0,95,0.00,,BKN065,0.29,62.00,VWS V14.01,2013-05-19 13:14:00,
2013-05-19 09:19:00,62.6,61.2,29.52,NE,47,0.0,0.0,95,0.00,,BKN065,0.29,62.00,VWS V14.01,2013-05-19 13:19:00,
2013-05-19 09:24:00,62.6,61.2,29.52,NE,51,0.0,0.0,95,0.00,,BKN065,0.29,63.00,VWS V14.01,2013-05-19 13:24:00,
2013-05-19 09:29:00,62.7,61.2,29.52,NE,51,0.0,0.0,95,0.00,,BKN065,0.29,67.00,VWS V14.01,2013-05-19 13:29:00,
2013-05-19 09:34:00,62.9,61.2,29.52,NE,51,0.0,0.0,94,0.00,,BKN065,0.29,69.00,VWS V14.01,2013-05-19 13:34:00,
2013-05-19 09:39:00,62.9,61.2,29.52,NE,51,0.0,0.0,94,0.00,,BKN065,0.29,69.00,VWS V14.01,2013-05-19 13:39:00,
2013-05-19 09:44:00,63.1,61.3,29.52,NE,51,0.0,0.0,94,0.00,,BKN065,0.29,76.00,VWS V14.01,2013-05-19 13:44:00,
2013-05-19 09:49:00,62.9,61.2,29.51,NE,51,0.0,0.0,94,0.00,,BKN065,0.29,90.00,VWS V14.01,2013-05-19 13:49:00,
2013-05-19 09:54:00,63.1,61.3,29.51,NE,51,0.0,0.0,94,0.00,,BKN065,0.29,107.00,VWS V14.01,2013-05-19 13:54:00,
2013-05-19 09:59:00,63.2,61.5,29.51,NE,51,0.0,0.0,94,0.00,,BKN065,0.29,123.00,VWS V14.01,2013-05-19 13:59:00,
2013-05-19 10:04:00,63.4,61.7,29.50,NE,51,0.0,0.0,94,0.00,,BKN110,0.29,127.00,VWS V14.01,2013-05-19 14:04:00,
2013-05-19 10:09:00,63.5,61.8,29.50,NE,51,0.0,0.0,94,0.00,,BKN110,0.29,128.00,VWS V14.01,2013-05-19 14:09:00,
2013-05-19 10:14:00,63.7,61.6,29.50,NE,51,0.0,0.0,93,0.00,,BKN110,0.29,127.00,VWS V14.01,2013-05-19 14:14:00,
2013-05-19 10:19:00,63.9,61.8,29.50,NE,51,0.0,0.0,93,0.00,,BKN110,0.29,137.00,VWS V14.01,2013-05-19 14:19:00,
2013-05-19 10:24:00,64.0,61.9,29.50,NE,51,0.0,0.0,93,0.00,,BKN110,0.29,153.00,VWS V14.01,2013-05-19 14:24:00,
2013-05-19 10:29:00,64.2,62.1,29.50,NE,51,0.0,0.0,93,0.00,,BKN110,0.29,176.00,VWS V14.01,2013-05-19 14:29:00,
2013-05-19 10:34:00,64.0,61.9,29.50,NE,51,0.0,0.0,93,0.00,,BKN110,0.29,172.00,VWS V14.01,2013-05-19 14:34:00,
2013-05-19 10:39:00,64.0,61.9,29.50,NE,51,0.0,0.0,93,0.00,,BKN110,0.29,171.00,VWS V14.01,2013-05-19 14:39:00,
2013-05-19 10:44:00,64.0,61.6,29.50,NE,51,0.0,0.0,92,0.00,,BKN110,0.29,185.00,VWS V14.01,2013-05-19 14:44:00,
2013-05-19 10:49:00,64.2,61.8,29.49,NE,51,0.0,5.0,92,0.00,,BKN110,0.29,209.00,VWS V14.01,2013-05-19 14:49:00,
2013-05-19 10:54:00,64.3,61.6,29.49,East,92,0.0,4.0,91,0.00,,BKN110,0.29,230.00,VWS V14.01,2013-05-19 14:54:00,
2013-05-19 10:59:00,64.5,61.8,29.49,ESE,116,0.0,2.0,91,0.00,,BKN110,0.29,294.00,VWS V14.01,2013-05-19 14:59:00,
2013-05-19 11:04:00,64.5,61.5,29.50,ENE,66,0.0,0.0,90,0.00,,FEW120,0.29,345.00,VWS V14.01,2013-05-19 15:04:00,
2013-05-19 11:09:00,64.8,61.8,29.50,NE,48,2.0,5.0,90,0.00,,FEW120,0.29,459.00,VWS V14.01,2013-05-19 15:09:00,
2013-05-19 11:14:00,65.2,61.9,29.50,East,80,3.0,3.0,89,0.00,,FEW120,0.29,653.00,VWS V14.01,2013-05-19 15:14:00,
2013-05-19 11:19:00,65.6,62.0,29.50,ESE,106,2.0,7.0,88,0.00,,FEW120,0.29,604.00,VWS V14.01,2013-05-19 15:19:00,
2013-05-19 11:24:00,66.1,62.1,29.50,SE,136,3.0,12.0,87,0.00,,FEW120,0.29,614.00,VWS V14.01,2013-05-19 15:24:00,
2013-05-19 11:29:00,66.4,62.1,29.50,ESE,107,7.0,7.0,86,0.00,,FEW120,0.29,575.00,VWS V14.01,2013-05-19 15:29:00,
2013-05-19 11:34:00,66.9,62.2,29.50,East,83,0.0,0.0,85,0.00,,FEW120,0.29,399.00,VWS V14.01,2013-05-19 15:34:00,
2013-05-19 11:39:00,67.4,62.7,29.50,ESE,107,3.0,3.0,85,0.00,,FEW120,0.29,468.00,VWS V14.01,2013-05-19 15:39:00,
2013-05-19 11:44:00,67.6,62.3,29.50,SE,130,0.0,6.0,83,0.00,,FEW120,0.29,449.00,VWS V14.01,2013-05-19 15:44:00,
2013-05-19 11:49:00,67.8,62.1,29.51,East,82,1.0,1.0,82,0.00,,FEW120,0.29,375.00,VWS V14.01,2013-05-19 15:49:00,
2013-05-19 11:54:00,68.1,62.1,29.51,ESE,109,0.0,7.0,81,0.00,,FEW120,0.29,387.00,VWS V14.01,2013-05-19 15:54:00,
2013-05-19 11:59:00,68.4,62.3,29.51,SE,140,0.0,7.0,81,0.00,,FEW120,0.29,311.00,VWS V14.01,2013-05-19 15:59:00,
2013-05-19 12:00:00,68.2,62.2,29.51,ESE,112,1.0,7.0,81,8.89,,,0.00,365.00,VWS V14.01,2013-05-19 16:00:00,
2013-05-19 12:04:00,68.6,62.2,29.51,SSE,147,0.0,1.0,80,0.00,,FEW120,0.29,354.00,VWS V14.01,2013-05-19 16:04:00,
2013-05-19 12:09:00,68.8,62.0,29.51,ESE,104,4.0,6.0,79,0.00,,FEW120,0.29,290.00,VWS V14.01,2013-05-19 16:09:00,
2013-05-19 12:14:00,68.9,62.5,29.51,ESE,104,0.0,6.0,80,0.00,,FEW120,0.29,413.00,VWS V14.01,2013-05-19 16:14:00,
2013-05-19 12:19:00,69.1,62.3,29.53,East,86,0.0,7.0,79,0.00,,BKN120,0.29,524.00,VWS V14.01,2013-05-19 16:19:00,
2013-05-19 12:24:00,69.3,62.5,29.53,ESE,123,0.0,7.0,79,0.00,,BKN120,0.29,524.00,VWS V14.01,2013-05-19 16:24:00,
2013-05-19 12:29:00,69.9,62.7,29.53,SE,124,0.0,7.0,78,0.00,,BKN120,0.29,751.00,VWS V14.01,2013-05-19 16:29:00,
2013-05-19 12:34:00,70.4,62.8,29.52,East,100,0.0,8.0,77,0.00,,BKN120,0.29,943.00,VWS V14.01,2013-05-19 16:34:00,
2013-05-19 12:39:00,71.1,62.8,29.52,South,172,2.0,8.0,75,0.00,,BKN120,0.29,978.00,VWS V14.01,2013-05-19 16:39:00,
2013-05-19 12:44:00,71.8,63.1,29.52,East,95,5.0,9.0,74,0.00,,BKN120,0.29,362.00,VWS V14.01,2013-05-19 16:44:00,
2013-05-19 12:49:00,72.5,63.8,29.51,SSW,195,6.0,9.0,74,0.00,,BKN120,0.29,966.00,VWS V14.01,2013-05-19 16:49:00,
2013-05-19 12:54:00,73.2,62.8,29.51,ESE,123,0.0,9.0,70,0.00,,BKN120,0.29,908.00,VWS V14.01,2013-05-19 16:54:00,
2013-05-19 12:59:00,73.2,62.4,29.51,ENE,72,2.0,9.0,69,0.00,,BKN021,0.29,398.00,VWS V14.01,2013-05-19 16:59:00,
2013-05-19 13:00:00,70.5,59.8,29.51,ESE,112,1.0,10.0,69,0.00,,,0.00,567.00,VWS V14.01,2013-05-19 17:00:00,
2013-05-19 13:04:00,73.0,62.7,29.51,ENE,78,0.0,2.0,70,0.00,,BKN021,0.29,1084.00,VWS V14.01,2013-05-19 17:04:00,
2013-05-19 13:09:00,73.5,62.7,29.51,ESE,106,0.0,2.0,69,0.00,,SCT021,0.29,957.00,VWS V14.01,2013-05-19 17:09:00,
2013-05-19 13:14:00,74.2,63.8,29.51,SE,124,0.0,5.0,70,0.00,,SCT021,0.29,999.00,VWS V14.01,2013-05-19 17:14:00,
2013-05-19 13:19:00,74.6,62.9,29.51,SE,124,0.0,5.0,67,0.00,,BKN021,0.29,482.00,VWS V14.01,2013-05-19 17:19:00,
2013-05-19 13:24:00,75.4,63.7,29.51,SE,131,0.0,5.0,67,0.00,,BKN021,0.29,364.00,VWS V14.01,2013-05-19 17:24:00,
2013-05-19 13:29:00,75.8,63.2,29.51,SE,131,0.0,5.0,65,0.00,,BKN021,0.29,435.00,VWS V14.01,2013-05-19 17:29:00,
2013-05-19 13:34:00,75.8,63.2,29.51,ESE,121,0.0,5.0,65,0.00,,BKN021,0.29,493.00,VWS V14.01,2013-05-19 17:34:00,
2013-05-19 13:39:00,76.0,63.4,29.51,South,169,0.0,8.0,65,0.00,,BKN021,0.29,494.00,VWS V14.01,2013-05-19 17:39:00,
2013-05-19 13:44:00,76.1,63.0,29.51,SSE,154,2.0,8.0,64,0.00,,BKN021,0.29,494.00,VWS V14.01,2013-05-19 17:44:00,
2013-05-19 13:49:00,76.3,62.8,29.50,SE,134,0.0,8.0,63,0.00,,BKN021,0.29,303.00,VWS V14.01,2013-05-19 17:49:00,
2013-05-19 13:54:00,76.5,63.4,29.50,ESE,114,0.0,8.0,64,0.00,,BKN021,0.29,329.00,VWS V14.01,2013-05-19 17:54:00,
2013-05-19 13:59:00,77.6,64.0,29.50,SE,126,1.0,8.0,63,0.00,,SCT095,0.29,1070.00,VWS V14.01,2013-05-19 17:59:00,
2013-05-19 14:00:00,75.3,61.8,29.49,SE,135,0.0,8.0,63,0.00,,,0.00,695.00,VWS V14.01,2013-05-19 18:00:00,
2013-05-19 14:04:00,77.9,64.3,29.49,SE,128,0.0,0.0,63,0.00,,SCT095,0.29,1003.00,VWS V14.01,2013-05-19 18:04:00,
2013-05-19 14:09:00,78.3,64.7,29.49,SSE,167,1.0,3.0,63,0.00,,SCT095,0.29,1161.00,VWS V14.01,2013-05-19 18:09:00,
2013-05-19 14:14:00,78.8,64.2,29.49,NNW,336,0.0,3.0,61,0.00,,SCT095,0.29,883.00,VWS V14.01,2013-05-19 18:14:00,
2013-05-19 14:19:00,79.8,64.2,29.49,SE,138,2.0,3.0,59,0.00,,BKN085,0.29,987.00,VWS V14.01,2013-05-19 18:19:00,
2013-05-19 14:24:00,80.1,64.0,29.49,ESE,107,0.0,6.0,58,0.00,,BKN085,0.29,961.00,VWS V14.01,2013-05-19 18:24:00,
2013-05-19 14:29:00,79.9,63.3,29.49,ENE,73,0.0,6.0,57,0.00,,BKN085,0.29,931.00,VWS V14.01,2013-05-19 18:29:00,
2013-05-19 14:34:00,79.6,63.5,29.48,East,100,0.0,6.0,58,0.00,,BKN085,0.29,1012.00,VWS V14.01,2013-05-19 18:34:00,
2013-05-19 14:39:00,79.0,62.5,29.48,ESE,110,0.0,6.0,57,0.00,,BKN085,0.29,285.00,VWS V14.01,2013-05-19 18:39:00,
2013-05-19 14:44:00,79.4,63.8,29.48,SE,134,1.0,6.0,59,0.00,,BKN085,0.29,1135.00,VWS V14.01,2013-05-19 18:44:00,
2013-05-19 14:49:00,80.1,64.0,29.47,SE,136,0.0,6.0,58,0.00,,BKN085,0.29,816.00,VWS V14.01,2013-05-19 18:49:00,
2013-05-19 14:54:00,80.7,63.6,29.47,East,89,0.0,6.0,56,0.00,,SCT034,0.29,255.00,VWS V14.01,2013-05-19 18:54:00,
2013-05-19 14:59:00,80.7,63.6,29.47,ESE,113,0.0,6.0,56,0.00,,SCT034,0.29,88.00,VWS V14.01,2013-05-19 18:59:00,
2013-05-19 15:00:00,79.5,62.5,29.48,East,90,0.0,7.0,56,0.00,,,0.00,772.00,VWS V14.01,2013-05-19 19:00:00,
2013-05-19 15:04:00,80.3,63.2,29.48,East,96,0.0,1.0,56,0.00,,BKN090,0.29,60.00,VWS V14.01,2013-05-19 19:04:00,
2013-05-19 15:09:00,79.8,63.7,29.48,ESE,102,0.0,1.0,58,0.00,,BKN090,0.29,32.00,VWS V14.01,2013-05-19 19:09:00,
2013-05-19 15:14:00,79.4,64.3,29.48,ESE,102,0.0,1.0,60,0.00,,BKN090,0.29,21.00,VWS V14.01,2013-05-19 19:14:00,
2013-05-19 15:19:00,78.8,64.2,29.48,ESE,106,0.0,1.0,61,0.01,,BKN090,0.30,14.00,VWS V14.01,2013-05-19 19:19:00,
2013-05-19 15:24:00,78.3,66.0,29.48,ESE,106,0.0,1.0,66,0.02,,,0.31,9.00,VWS V14.01,2013-05-19 19:24:00,
2013-05-19 15:29:00,77.7,66.7,29.48,ESE,104,0.0,1.0,69,0.03,,,0.32,11.00,VWS V14.01,2013-05-19 19:29:00,
2013-05-19 15:34:00,76.7,67.4,29.48,ESE,103,0.0,1.0,73,0.03,,,0.32,14.00,VWS V14.01,2013-05-19 19:34:00,
2013-05-19 15:39:00,75.8,66.9,29.48,ESE,103,0.0,1.0,74,0.03,,,0.32,23.00,VWS V14.01,2013-05-19 19:39:00,
2013-05-19 15:44:00,74.9,66.8,29.48,ESE,102,0.0,1.0,76,0.03,,,0.32,70.00,VWS V14.01,2013-05-19 19:44:00,
2013-05-19 15:49:00,74.4,67.1,29.48,ESE,102,0.0,1.0,78,0.03,,,0.32,165.00,VWS V14.01,2013-05-19 19:49:00,
2013-05-19 15:54:00,73.9,67.0,29.48,East,86,0.0,1.0,79,0.03,,,0.32,197.00,VWS V14.01,2013-05-19 19:54:00,
2013-05-19 15:59:00,73.7,67.5,29.48,East,86,0.0,1.0,81,0.03,,,0.32,297.00,VWS V14.01,2013-05-19 19:59:00,
2013-05-19 16:00:00,77.1,70.8,29.47,ESE,112,0.0,3.0,81,0.03,,,0.03,78.00,VWS V14.01,2013-05-19 20:00:00,
2013-05-19 16:04:00,73.5,67.3,29.47,East,86,0.0,0.0,81,0.03,,,0.32,239.00,VWS V14.01,2013-05-19 20:04:00,
2013-05-19 16:09:00,73.3,67.5,29.47,East,86,0.0,0.0,82,0.03,,,0.32,250.00,VWS V14.01,2013-05-19 20:09:00,
2013-05-19 16:14:00,73.5,68.0,29.47,NW,306,0.0,4.0,83,0.03,,,0.32,869.00,VWS V14.01,2013-05-19 20:14:00,
2013-05-19 16:19:00,73.3,66.8,29.49,NW,308,0.0,4.0,80,0.03,,,0.32,867.00,VWS V14.01,2013-05-19 20:19:00,
2013-05-19 16:24:00,73.7,66.4,29.49,SSW,200,0.0,4.0,78,0.03,,,0.32,876.00,VWS V14.01,2013-05-19 20:24:00,
2013-05-19 16:29:00,74.4,66.7,29.49,SSE,167,0.0,4.0,77,0.03,,,0.32,755.00,VWS V14.01,2013-05-19 20:29:00,
2013-05-19 16:34:00,75.1,65.9,29.48,SSE,165,0.0,4.0,73,0.04,,CLR,0.33,871.00,VWS V14.01,2013-05-19 20:34:00,
2013-05-19 16:39:00,75.6,65.9,29.48,SSE,167,0.0,4.0,72,0.04,,CLR,0.33,153.00,VWS V14.01,2013-05-19 20:39:00,
2013-05-19 16:44:00,76.0,65.9,29.48,South,169,0.0,4.0,71,0.04,,CLR,0.33,114.00,VWS V14.01,2013-05-19 20:44:00,
2013-05-19 16:49:00,76.3,65.8,29.48,South,169,0.0,4.0,70,0.04,,CLR,0.33,88.00,VWS V14.01,2013-05-19 20:49:00,
2013-05-19 16:54:00,76.5,66.0,29.48,South,169,0.0,4.0,70,0.04,,CLR,0.33,93.00,VWS V14.01,2013-05-19 20:54:00,
2013-05-19 16:59:00,76.7,67.0,29.48,South,169,0.0,4.0,72,0.04,,CLR,0.33,86.00,VWS V14.01,2013-05-19 20:59:00,
2013-05-19 17:00:00,74.8,65.2,29.47,NW,315,0.0,4.0,72,0.04,,,0.04,407.00,VWS V14.01,2013-05-19 21:00:00,
2013-05-19 17:04:00,76.7,67.0,29.47,South,169,0.0,0.0,72,0.01,,CLR,0.33,99.00,VWS V14.01,2013-05-19 21:04:00,
2013-05-19 17:09:00,76.3,67.4,29.47,South,169,0.0,0.0,74,0.01,,CLR,0.33,150.00,VWS V14.01,2013-05-19 21:09:00,
2013-05-19 17:14:00,76.0,67.9,29.47,South,169,0.0,0.0,76,0.02,,CLR,0.34,169.00,VWS V14.01,2013-05-19 21:14:00,
2013-05-19 17:19:00,75.6,68.3,29.47,South,169,0.0,0.0,78,0.02,,CLR,0.34,238.00,VWS V14.01,2013-05-19 21:19:00,
2013-05-19 17:24:00,75.4,68.4,29.47,South,169,0.0,0.0,79,0.02,,CLR,0.34,417.00,VWS V14.01,2013-05-19 21:24:00,
2013-05-19 17:29:00,75.3,69.1,29.47,South,169,0.0,0.0,81,0.02,,CLR,0.34,589.00,VWS V14.01,2013-05-19 21:29:00,
2013-05-19 17:34:00,75.3,69.4,29.43,South,169,0.0,0.0,82,0.02,,CLR,0.34,670.00,VWS V14.01,2013-05-19 21:34:00,
2013-05-19 17:39:00,75.1,68.5,29.43,NE,40,0.0,0.0,80,0.02,,CLR,0.34,660.00,VWS V14.01,2013-05-19 21:39:00,
2013-05-19 17:44:00,75.1,67.8,29.43,WNW,298,0.0,0.0,78,0.02,,CLR,0.34,658.00,VWS V14.01,2013-05-19 21:44:00,
2013-05-19 17:49:00,75.1,66.6,29.42,WNW,301,0.0,0.0,75,0.02,,CLR,0.34,640.00,VWS V14.01,2013-05-19 21:49:00,
2013-05-19 17:54:00,75.3,66.8,29.42,WNW,301,0.0,0.0,75,0.02,,-RA,0.34,623.00,VWS V14.01,2013-05-19 21:54:00,
2013-05-19 17:59:00,75.6,66.3,29.42,WNW,301,0.0,0.0,73,0.02,,-RA,0.34,589.00,VWS V14.01,2013-05-19 21:59:00,
2013-05-19 18:00:00,75.6,66.3,29.41,NW,315,0.0,0.0,73,0.02,,,0.05,432.00,VWS V14.01,2013-05-19 22:00:00,
2013-05-19 18:04:00,76.1,66.8,29.41,WNW,301,0.0,0.0,73,0.01,,-RA,0.34,519.00,VWS V14.01,2013-05-19 22:04:00,
2013-05-19 18:09:00,76.5,66.4,29.41,WNW,299,0.0,0.0,71,0.01,,-RA,0.34,575.00,VWS V14.01,2013-05-19 22:09:00,
2013-05-19 18:15:00,76.7,64.5,29.41,East,90,0.0,0.0,66,0.01,,-RA,0.34,561.00,VWS V14.01,2013-05-19 22:15:00,
2013-05-19 18:19:00,76.8,62.3,29.39,SE,126,0.0,0.0,61,0.01,,-RA,0.34,533.00,VWS V14.01,2013-05-19 22:19:00,
2013-05-19 18:24:00,77.6,63.1,29.39,SE,126,0.0,0.0,61,0.01,,-RA,0.34,516.00,VWS V14.01,2013-05-19 22:24:00,
2013-05-19 18:29:00,77.7,60.8,29.39,East,92,0.0,2.0,56,0.01,,-RA,0.34,507.00,VWS V14.01,2013-05-19 22:29:00,
2013-05-19 18:34:00,78.3,62.3,29.39,East,92,0.0,2.0,58,0.01,,,0.34,554.00,VWS V14.01,2013-05-19 22:34:00,
2013-05-19 18:39:00,78.5,61.5,29.39,ESE,113,2.0,6.0,56,0.01,,,0.34,245.00,VWS V14.01,2013-05-19 22:39:00,
2013-05-19 18:44:00,78.3,60.3,29.39,ESE,119,0.0,6.0,54,0.01,,,0.34,174.00,VWS V14.01,2013-05-19 22:44:00,
2013-05-19 18:49:00,78.1,59.6,29.38,East,89,3.0,7.0,53,0.01,,,0.34,97.00,VWS V14.01,2013-05-19 22:49:00,
2013-05-19 18:55:00,77.9,59.9,29.38,East,83,3.0,7.0,54,0.01,,,0.34,60.00,VWS V14.01,2013-05-19 22:55:00,
2013-05-19 19:00:00,77.6,60.2,29.38,East,85,0.0,7.0,55,0.01,,,0.34,48.00,VWS V14.01,2013-05-19 23:00:00,
2013-05-19 19:04:00,77.4,60.5,29.35,ENE,76,0.0,2.0,56,0.00,,,0.34,44.00,VWS V14.01,2013-05-19 23:04:00,
2013-05-19 19:10:00,77.2,60.8,29.35,East,95,0.0,2.0,57,0.00,,FEW060,0.34,39.00,VWS V14.01,2013-05-19 23:10:00,
2013-05-19 19:15:00,77.2,61.3,29.35,East,95,0.0,2.0,58,0.00,,FEW060,0.34,26.00,VWS V14.01,2013-05-19 23:15:00,
2013-05-19 19:20:00,76.8,60.9,29.38,ESE,109,0.0,6.0,58,0.00,,FEW060,0.34,23.00,VWS V14.01,2013-05-19 23:20:00,
2013-05-19 19:25:00,76.3,60.5,29.38,ENE,75,2.0,7.0,58,0.00,,FEW060,0.34,18.00,VWS V14.01,2013-05-19 23:25:00,
2013-05-19 19:30:00,76.1,60.3,29.38,South,186,0.0,10.0,58,0.00,,FEW060,0.34,16.00,VWS V14.01,2013-05-19 23:30:00,
2013-05-19 19:35:00,76.0,60.7,29.41,ESE,110,6.0,10.0,59,0.00,,FEW060,0.34,19.00,VWS V14.01,2013-05-19 23:35:00,
2013-05-19 19:40:00,75.4,60.6,29.41,ESE,109,8.0,17.0,60,0.00,,FEW060,0.34,19.00,VWS V14.01,2013-05-19 23:40:00,
2013-05-19 19:45:00,74.7,61.3,29.41,ESE,107,6.0,17.0,63,0.00,,FEW060,0.34,18.00,VWS V14.01,2013-05-19 23:45:00,
2013-05-19 19:50:00,74.0,61.5,29.41,SE,136,2.0,17.0,65,0.00,,FEW060,0.34,19.00,VWS V14.01,2013-05-19 23:50:00,
2013-05-19 19:55:00,73.3,62.1,29.41,ESE,119,1.0,17.0,68,0.00,,FEW060,0.34,19.00,VWS V14.01,2013-05-19 23:55:00,
2013-05-19 20:00:00,72.3,62.0,29.42,SE,131,8.0,17.0,70,0.00,,FEW060,0.34,23.00,VWS V14.01,2013-05-20 00:00:00,
2013-05-19 20:05:00,71.6,61.7,29.42,SSE,151,0.0,8.0,71,0.00,,BKN050,0.34,19.00,VWS V14.01,2013-05-20 00:05:00,
2013-05-19 20:10:00,71.1,62.0,29.42,ESE,121,0.0,8.0,73,0.00,,BKN050,0.34,18.00,VWS V14.01,2013-05-20 00:10:00,
2013-05-19 20:15:00,70.6,62.3,29.41,ESE,117,3.0,8.0,75,0.00,,BKN050,0.34,21.00,VWS V14.01,2013-05-20 00:15:00,
2013-05-19 20:20:00,70.1,62.2,29.41,East,85,0.0,8.0,76,0.00,,BKN050,0.34,28.00,VWS V14.01,2013-05-20 00:20:00,
2013-05-19 20:25:00,69.6,62.1,29.41,SE,134,0.0,9.0,77,0.00,,BKN050,0.34,32.00,VWS V14.01,2013-05-20 00:25:00,
2013-05-19 20:30:00,69.1,61.2,29.41,SE,144,2.0,9.0,76,0.00,,BKN050,0.34,33.00,VWS V14.01,2013-05-20 00:30:00,
2013-05-19 20:35:00,68.8,60.9,29.41,South,181,0.0,9.0,76,0.00,,BKN050,0.34,39.00,VWS V14.01,2013-05-20 00:35:00,
2013-05-19 20:40:00,68.6,60.7,29.41,East,97,0.0,9.0,76,0.00,,BKN050,0.34,42.00,VWS V14.01,2013-05-20 00:40:00,
2013-05-19 20:45:00,68.3,59.7,29.39,SE,144,3.0,9.0,74,0.00,,BKN050,0.34,39.00,VWS V14.01,2013-05-20 00:45:00,
2013-05-19 20:50:00,67.9,58.5,29.39,SE,128,2.0,9.0,72,0.00,,BKN050,0.34,32.00,VWS V14.01,2013-05-20 00:50:00,
2013-05-19 20:55:00,67.9,57.8,29.39,East,90,3.0,9.0,70,0.00,,BKN050,0.34,25.00,VWS V14.01,2013-05-20 00:55:00,
2013-05-19 21:00:00,67.8,56.5,29.37,ESE,123,6.0,10.0,67,0.00,,BKN050,0.34,21.00,VWS V14.01,2013-05-20 01:00:00,
2013-05-19 21:05:00,67.6,55.0,29.37,East,100,11.0,12.0,64,0.00,,BKN050,0.34,16.00,VWS V14.01,2013-05-20 01:05:00,
2013-05-19 21:10:00,67.6,55.0,29.37,SE,136,4.0,12.0,64,0.00,,BKN050,0.34,16.00,VWS V14.01,2013-05-20 01:10:00,
2013-05-19 21:15:00,67.4,54.8,29.37,SE,143,5.0,12.0,64,0.00,,BKN110,0.34,14.00,VWS V14.01,2013-05-20 01:15:00,
2013-05-19 21:20:00,67.3,55.2,29.37,SE,137,1.0,14.0,65,0.00,,BKN110,0.34,11.00,VWS V14.01,2013-05-20 01:20:00,
2013-05-19 21:25:00,66.9,55.2,29.37,South,184,0.0,14.0,66,0.00,,BKN110,0.34,9.00,VWS V14.01,2013-05-20 01:25:00,
2013-05-19 21:30:00,66.6,55.7,29.39,ENE,72,0.0,14.0,68,0.00,,BKN110,0.34,0.00,VWS V14.01,2013-05-20 01:30:00,
2013-05-19 21:35:00,66.4,55.9,29.39,ESE,123,0.0,14.0,69,0.00,,BKN110,0.34,0.00,VWS V14.01,2013-05-20 01:35:00,
2013-05-19 21:40:00,66.1,56.0,29.39,South,181,0.0,14.0,70,0.00,,BKN110,0.34,0.00,VWS V14.01,2013-05-20 01:40:00,
2013-05-19 21:45:00,66.0,56.3,29.43,East,93,0.0,14.0,71,0.00,,BKN110,0.34,0.00,VWS V14.01,2013-05-20 01:45:00,
2013-05-19 21:50:00,65.6,56.3,29.43,East,93,0.0,14.0,72,0.00,,BKN110,0.34,0.00,VWS V14.01,2013-05-20 01:50:00,
2013-05-19 21:55:00,65.5,56.2,29.43,East,93,0.0,14.0,72,0.00,,BKN110,0.34,0.00,VWS V14.01,2013-05-20 01:55:00,
2013-05-19 22:00:00,65.5,56.2,29.44,East,93,0.0,14.0,72,0.00,,BKN110,0.34,0.00,VWS V14.01,2013-05-20 02:00:00,
2013-05-19 22:05:00,65.3,56.4,29.44,West,280,8.0,8.0,73,0.00,,BKN100,0.34,0.00,VWS V14.01,2013-05-20 02:05:00,
2013-05-19 22:10:00,65.2,56.3,29.44,WSW,254,2.0,8.0,73,0.00,,BKN100,0.34,0.00,VWS V14.01,2013-05-20 02:10:00,
2013-05-19 22:15:00,65.2,56.0,29.49,West,280,0.0,8.0,72,0.00,,BKN100,0.34,0.00,VWS V14.01,2013-05-20 02:15:00,
2013-05-19 22:20:00,65.3,56.0,29.49,WSW,257,0.0,8.0,72,0.00,,BKN100,0.34,0.00,VWS V14.01,2013-05-20 02:20:00,
2013-05-19 22:25:00,65.3,56.4,29.49,WSW,246,0.0,8.0,73,0.00,,-RA,0.34,0.00,VWS V14.01,2013-05-20 02:25:00,
2013-05-19 22:30:00,65.2,56.7,29.50,West,263,0.0,8.0,74,0.00,,-RA,0.34,0.00,VWS V14.01,2013-05-20 02:30:00,
2013-05-19 22:35:00,64.8,56.7,29.50,West,263,0.0,8.0,75,0.02,,-RA,0.36,0.00,VWS V14.01,2013-05-20 02:35:00,
2013-05-19 22:40:00,64.7,57.3,29.50,WSW,256,0.0,8.0,77,0.02,,-RA,0.36,0.00,VWS V14.01,2013-05-20 02:40:00,
2013-05-19 22:45:00,64.3,57.7,29.48,West,271,0.0,8.0,79,0.03,,-RA,0.37,0.00,VWS V14.01,2013-05-20 02:45:00,
2013-05-19 22:50:00,64.0,57.7,29.48,West,271,0.0,8.0,80,0.04,,-RA,0.38,0.00,VWS V14.01,2013-05-20 02:50:00,
2013-05-19 22:55:00,63.7,57.8,29.48,West,271,0.0,8.0,81,0.05,,-RA,0.39,0.00,VWS V14.01,2013-05-20 02:55:00,
2013-05-19 23:00:00,63.2,57.6,29.50,West,271,0.0,8.0,82,0.06,,-RA,0.40,0.00,VWS V14.01,2013-05-20 03:00:00,
2013-05-19 23:05:00,63.2,58.0,29.50,West,272,0.0,0.0,83,0.07,,-RA,0.41,0.00,VWS V14.01,2013-05-20 03:05:00,
2013-05-19 23:10:00,62.9,58.0,29.50,West,271,0.0,0.0,84,0.09,,-RA,0.43,0.00,VWS V14.01,2013-05-20 03:10:00,
2013-05-19 23:15:00,62.6,58.0,29.46,East,82,2.0,3.0,85,0.10,,-RA,0.44,0.00,VWS V14.01,2013-05-20 03:15:00,
2013-05-19 23:20:00,62.0,57.8,29.46,East,83,1.0,3.0,86,0.10,,-RA,0.44,0.00,VWS V14.01,2013-05-20 03:20:00,
2013-05-19 23:25:00,61.8,57.6,29.46,East,88,3.0,6.0,86,0.10,,-RA,0.44,0.00,VWS V14.01,2013-05-20 03:25:00,
2013-05-19 23:30:00,61.0,57.1,29.42,ENE,78,5.0,8.0,87,0.11,,-RA,0.45,0.00,VWS V14.01,2013-05-20 03:30:00,
2013-05-19 23:35:00,60.9,57.3,29.42,ENE,68,4.0,8.0,88,0.11,,-RA,0.45,0.00,VWS V14.01,2013-05-20 03:35:00,
2013-05-19 23:40:00,60.7,57.1,29.42,East,90,0.0,8.0,88,0.11,,-RA,0.45,0.00,VWS V14.01,2013-05-20 03:40:00,
2013-05-19 23:45:00,60.7,57.4,29.46,East,92,0.0,8.0,89,0.11,,-RA,0.45,0.00,VWS V14.01,2013-05-20 03:45:00,
2013-05-19 23:50:00,60.5,57.2,29.46,East,90,0.0,8.0,89,0.11,,-RA,0.45,0.00,VWS V14.01,2013-05-20 03:50:00,
2013-05-19 23:55:00,60.5,57.2,29.46,East,92,0.0,8.0,89,0.11,,-RA,0.45,0.00,VWS V14.01,2013-05-20 03:55:00,